{"data":{"norad_id":56531,"epoch":"2026-09-20T22:30:31.497984Z","epoch_age_seconds":77001,"freshness":"FRESH","line1":"1 56531U 23065AE  26263.93786456  .00000044  00000+0  11110-4 0  9998","line2":"2 56531  43.0036 175.6853 0001241 261.5559  98.5152 15.27574239186622","mean_motion":15.27574239,"eccentricity":0.0001241,"inclination_deg":43.0036,"raan_deg":175.6853,"arg_perigee_deg":261.5559,"mean_anomaly_deg":98.5152,"bstar":1.111e-5,"rev_number":18662,"period_min":94.267104225499,"perigee_km":482.21487126506,"apogee_km":483.91782193569,"semimajor_km":6861.2033466004,"source":"CELESTRAK","updated_at":"2026-09-21T09:00:33.474737Z"}}